GLOBALSTAR M043 [-]

Last updated on July 6, 2021, 3:36 p.m. UTC

1 25874U 99041C   21186.85639987 -.00000036  00000-0  96997-3 0  9995
2 25874  51.9363 209.6734 0012703   5.5298 166.2697 11.25665094960447
UTC
Height (km)
Latitude
Longitude
Inclination
Orbital Period
UTC large
Height (km)
Speed (km/s)
/
Latitude / Longitude
Inclination (degrees)
Orbital Period (minutes)
Azimuth
Elevation
Range (km)
Doppler Factor
iOS Compass Heading
iOS Angle